Location: Newark
(47.5347°N, 5.5339°E)
Time: 10:03:26
(UTC+00:00)

ISS - Pass Details

Date: 02 October 2019
Orbit: 411 x 421 km, 51.6° (Epoch: 19 October)

Event Time Altitude Azimuth Distance (km) Brightness Sun altitude
Rises 19:18:40 0° 294° (WNW) 2,348 1.6 -21.2°
Reaches altitude 10° 19:20:46 10° 294° (WNW) 1,483 0.2 -21.6°
Enters shadow 19:23:30 58° 298° (WNW) 487 -3.2 -22.0°
